Location: Newark
(40.2370°N, 1.4081°W)
Time: 18:20:59
(UTC+00:00)

ZACube-1 - Visible Passes

Search period start: 11 December 2019 00:00
Search period end: 21 December 2019 00:00
Orbit: 584 x 667 km, 97.6° (Epoch: 11 December)

Date Brightness Start Highest point End Pass type
(mag) Time Alt. Az. Time Alt. Az. Time Alt. Az.
11 Dec ? 05:47:08 10° NNE 05:50:57 32° E 05:54:41 10° SSE visible
11 Dec ? 18:17:50 10° SSW 18:21:47 29° W 18:25:43 10° NW visible
12 Dec ? 06:05:51 10° NNE 06:09:59 55° E 06:14:03 10° S visible
12 Dec ? 18:37:45 10° SW 18:40:54 18° W 18:44:02 10° NW visible
13 Dec ? 06:24:45 10° NNE 06:28:59 87° W 06:33:06 10° SSW visible
13 Dec ? 17:18:57 10° SSE 17:23:27 65° ENE 17:27:52 10° N visible
13 Dec ? 18:58:38 10° WSW 19:00:04 11° W 19:01:29 10° WNW visible
14 Dec ? 05:09:40 10° ENE 05:11:18 12° E 05:12:56 10° ESE visible
14 Dec ? 06:43:49 10° N 06:47:54 51° WNW 06:51:54 10° SSW visible
14 Dec ? 17:37:52 10° S 17:42:24 78° WSW 17:46:52 10° NNW visible
15 Dec ? 05:27:23 10° NE 05:30:27 20° E 05:33:30 10° SE visible
15 Dec ? 17:57:03 10° S 18:01:24 47° W 18:05:42 10° NNW visible
16 Dec ? 05:45:47 10° NNE 05:49:33 32° E 05:53:15 10° SSE visible
16 Dec ? 18:16:32 10° SSW 18:20:27 29° W 18:24:20 10° NW visible
17 Dec ? 06:04:30 10° NNE 06:08:35 54° E 06:12:37 10° S visible
17 Dec ? 18:36:26 10° SW 18:39:33 18° W 18:42:39 10° NW visible
18 Dec ? 06:23:23 10° NNE 06:27:34 89° WNW 06:31:41 10° SSW visible
18 Dec ? 17:17:40 10° SSE 17:22:06 64° ENE 17:26:28 10° N visible
18 Dec ? 18:57:21 10° WSW 18:58:42 11° W 19:00:04 10° WNW visible
19 Dec ? 05:08:23 10° ENE 05:09:54 12° E 05:11:24 10° ESE visible
19 Dec ? 06:42:26 10° N 06:46:29 52° WNW 06:50:29 10° SSW visible
19 Dec ? 17:36:35 10° S 17:41:03 78° WSW 17:45:27 10° NNW visible
20 Dec ? 05:26:01 10° NE 05:29:02 19° E 05:32:02 10° SE visible
20 Dec ? 17:55:45 10° S 18:00:03 47° W 18:04:18 10° NNW visible
